Time,TemperatureF,DewpointF,PressureIn,WindDirection,WindDirectionDegrees,WindSpeedMPH,WindSpeedGustMPH,Humidity,HourlyPrecipIn,Conditions,Clouds,dailyrainin,SoftwareType,DateUTC
2013-01-05 00:00:00,76.3,69.3,30.07,ENE,68,6.3,0.0,79,0.00,,---,0.00,VWS V14.01,2013-01-05 04:00:00,
2013-01-05 00:05:00,76.3,69.3,30.07,ENE,68,5.8,0.0,79,0.00,,---,0.00,VWS V14.01,2013-01-05 04:05:00,
2013-01-05 00:10:00,76.3,69.7,30.06,North,0,3.8,0.0,80,0.00,,---,0.00,VWS V14.01,2013-01-05 04:10:00,
2013-01-05 00:15:00,76.3,70.1,30.07,SSE,158,5.4,0.0,81,0.00,,---,0.00,VWS V14.01,2013-01-05 04:15:00,
2013-01-05 00:20:00,76.3,70.1,30.06,North,0,6.9,0.0,81,0.00,,---,0.00,VWS V14.01,2013-01-05 04:20:00,
2013-01-05 00:25:00,76.3,69.7,30.06,SSE,158,5.6,0.0,80,0.00,,---,0.00,VWS V14.01,2013-01-05 04:25:00,
2013-01-05 00:30:00,76.3,70.1,30.06,SE,135,4.0,0.0,81,0.00,,---,0.00,VWS V14.01,2013-01-05 04:30:00,
2013-01-05 00:35:00,76.1,69.5,30.06,ESE,112,5.6,0.0,80,0.00,,---,0.00,VWS V14.01,2013-01-05 04:35:00,
2013-01-05 00:41:00,76.1,69.1,30.06,NW,315,2.7,0.0,79,0.00,,---,0.00,VWS V14.01,2013-01-05 04:41:00,
2013-01-05 00:46:00,76.1,69.1,30.06,SE,135,5.6,0.0,79,0.00,,---,0.00,VWS V14.01,2013-01-05 04:46:00,
2013-01-05 00:51:00,76.1,69.1,30.06,SSE,158,3.4,0.0,79,0.00,,---,0.00,VWS V14.01,2013-01-05 04:51:00,
2013-01-05 00:56:00,76.1,69.5,30.06,NNE,22,2.7,0.0,80,0.00,,---,0.00,VWS V14.01,2013-01-05 04:56:00,
2013-01-05 01:00:00,76.1,69.5,30.05,NNE,22,4.7,0.0,80,0.00,,---,0.00,VWS V14.01,2013-01-05 05:00:00,
2013-01-05 01:02:00,76.1,69.5,30.06,West,270,3.6,0.0,80,0.00,,---,0.00,VWS V14.01,2013-01-05 05:02:00,
2013-01-05 01:07:00,76.1,69.5,30.05,SE,135,3.8,0.0,80,0.00,,---,0.00,VWS V14.01,2013-01-05 05:07:00,
2013-01-05 01:12:00,76.3,70.1,30.06,East,90,4.7,0.0,81,0.00,,---,0.00,VWS V14.01,2013-01-05 05:12:00,
2013-01-05 01:17:00,76.3,69.7,30.05,SW,225,5.8,0.0,80,0.00,,---,0.00,VWS V14.01,2013-01-05 05:17:00,
2013-01-05 01:22:00,76.1,69.8,30.05,SE,135,5.1,0.0,81,0.00,,---,0.00,VWS V14.01,2013-01-05 05:22:00,
2013-01-05 01:27:00,76.0,69.8,30.05,SW,225,4.7,0.0,81,0.00,,---,0.00,VWS V14.01,2013-01-05 05:27:00,
2013-01-05 01:32:00,75.6,69.7,30.05,ENE,68,5.1,0.0,82,0.00,,---,0.00,VWS V14.01,2013-01-05 05:32:00,
2013-01-05 01:37:00,75.6,69.7,30.04,East,90,5.4,0.0,82,0.00,,---,0.00,VWS V14.01,2013-01-05 05:37:00,
2013-01-05 01:42:00,75.6,69.7,30.04,WSW,248,4.7,0.0,82,0.00,,---,0.00,VWS V14.01,2013-01-05 05:42:00,
2013-01-05 01:47:00,75.6,70.1,30.04,ENE,68,2.5,0.0,83,0.00,,---,0.00,VWS V14.01,2013-01-05 05:47:00,
2013-01-05 01:52:00,75.8,70.3,30.04,SSE,158,5.1,0.0,83,0.00,,---,0.00,VWS V14.01,2013-01-05 05:52:00,
2013-01-05 01:58:00,75.8,70.3,30.04,ENE,68,6.3,0.0,83,0.00,,---,0.00,VWS V14.01,2013-01-05 05:58:00,
2013-01-05 02:03:00,76.0,70.5,30.04,ESE,112,5.4,0.0,83,0.00,,---,0.00,VWS V14.01,2013-01-05 06:03:00,
2013-01-05 02:08:00,76.0,70.5,30.04,SW,225,4.0,0.0,83,0.00,,---,0.00,VWS V14.01,2013-01-05 06:08:00,
2013-01-05 02:13:00,76.0,70.5,30.03,West,270,3.8,0.0,83,0.00,,---,0.00,VWS V14.01,2013-01-05 06:13:00,
2013-01-05 02:18:00,76.0,70.5,30.03,ESE,112,4.7,0.0,83,0.00,,---,0.00,VWS V14.01,2013-01-05 06:18:00,
2013-01-05 02:23:00,76.0,70.5,30.03,North,0,4.7,0.0,83,0.00,,---,0.00,VWS V14.01,2013-01-05 06:23:00,
2013-01-05 02:28:00,75.8,69.6,30.03,South,180,4.0,0.0,81,0.00,,---,0.00,VWS V14.01,2013-01-05 06:28:00,
2013-01-05 02:33:00,75.8,69.6,30.03,North,0,5.8,0.0,81,0.00,,---,0.00,VWS V14.01,2013-01-05 06:33:00,
2013-01-05 02:38:00,76.0,69.8,30.03,NE,45,5.4,0.0,81,0.00,,---,0.00,VWS V14.01,2013-01-05 06:38:00,
2013-01-05 02:43:00,76.0,69.4,30.03,South,180,3.4,0.0,80,0.00,,---,0.00,VWS V14.01,2013-01-05 06:43:00,
2013-01-05 02:48:00,76.1,69.5,30.03,SSE,158,4.0,0.0,80,0.00,,---,0.00,VWS V14.01,2013-01-05 06:48:00,
2013-01-05 02:53:00,76.1,69.8,30.03,ENE,68,7.2,0.0,81,0.00,,---,0.00,VWS V14.01,2013-01-05 06:53:00,
2013-01-05 02:58:00,76.1,69.8,30.03,NNW,338,2.9,0.0,81,0.00,,---,0.00,VWS V14.01,2013-01-05 06:58:00,
2013-01-05 03:03:00,76.1,69.8,30.03,SW,225,5.6,0.0,81,0.00,,---,0.00,VWS V14.01,2013-01-05 07:03:00,
2013-01-05 03:08:00,76.1,70.2,30.02,ENE,68,4.3,0.0,82,0.00,,---,0.00,VWS V14.01,2013-01-05 07:08:00,
2013-01-05 03:13:00,76.1,69.8,30.02,NE,45,4.3,0.0,81,0.00,,---,0.00,VWS V14.01,2013-01-05 07:13:00,
2013-01-05 03:18:00,76.3,70.1,30.02,NNE,22,7.6,0.0,81,0.00,,---,0.00,VWS V14.01,2013-01-05 07:18:00,
2013-01-05 03:23:00,76.3,70.1,30.02,ENE,68,7.2,0.0,81,0.00,,---,0.00,VWS V14.01,2013-01-05 07:23:00,
2013-01-05 03:28:00,76.3,70.4,30.02,NNW,338,5.4,0.0,82,0.00,,---,0.00,VWS V14.01,2013-01-05 07:28:00,
2013-01-05 03:33:00,76.3,70.4,30.02,SW,225,7.2,0.0,82,0.00,,---,0.00,VWS V14.01,2013-01-05 07:33:00,
2013-01-05 03:38:00,76.3,70.8,30.02,North,0,4.0,0.0,83,0.00,,---,0.00,VWS V14.01,2013-01-05 07:38:00,
2013-01-05 03:43:00,76.0,70.1,30.03,ENE,68,2.5,0.0,82,0.00,,---,0.00,VWS V14.01,2013-01-05 07:43:00,
2013-01-05 03:48:00,75.6,70.4,30.03,SW,225,3.4,0.0,84,0.02,,---,0.02,VWS V14.01,2013-01-05 07:48:00,
2013-01-05 03:53:00,75.2,70.4,30.02,SW,225,1.8,0.0,85,0.02,,---,0.02,VWS V14.01,2013-01-05 07:53:00,
2013-01-05 03:58:00,74.9,70.1,30.02,SE,135,6.0,0.0,85,0.02,,---,0.02,VWS V14.01,2013-01-05 07:58:00,
2013-01-05 04:03:00,74.9,70.1,30.03,ESE,112,5.6,0.0,85,0.02,,---,0.02,VWS V14.01,2013-01-05 08:03:00,
2013-01-05 04:08:00,74.9,70.1,30.03,ENE,68,7.2,0.0,85,0.02,,---,0.02,VWS V14.01,2013-01-05 08:08:00,
2013-01-05 04:13:00,74.9,70.1,30.03,West,270,2.5,0.0,85,0.02,,---,0.02,VWS V14.01,2013-01-05 08:13:00,
2013-01-05 04:18:00,74.9,70.1,30.03,East,90,5.8,0.0,85,0.02,,---,0.02,VWS V14.01,2013-01-05 08:18:00,
2013-01-05 04:23:00,75.1,70.6,30.03,East,90,5.4,0.0,86,0.02,,---,0.02,VWS V14.01,2013-01-05 08:23:00,
2013-01-05 04:29:00,75.1,70.3,30.03,ENE,68,4.9,0.0,85,0.02,,---,0.02,VWS V14.01,2013-01-05 08:29:00,
2013-01-05 04:34:00,75.2,70.0,30.03,WNW,292,4.3,0.0,84,0.02,,---,0.02,VWS V14.01,2013-01-05 08:34:00,
2013-01-05 04:39:00,75.2,70.4,30.03,West,270,6.5,0.0,85,0.02,,---,0.02,VWS V14.01,2013-01-05 08:39:00,
2013-01-05 04:44:00,75.4,70.6,30.03,North,0,5.4,0.0,85,0.02,,---,0.02,VWS V14.01,2013-01-05 08:44:00,
2013-01-05 04:49:00,75.4,70.9,30.03,East,90,4.7,0.0,86,0.01,,---,0.02,VWS V14.01,2013-01-05 08:49:00,
2013-01-05 04:54:00,75.2,70.4,30.03,ESE,112,6.3,0.0,85,0.00,,---,0.02,VWS V14.01,2013-01-05 08:54:00,
2013-01-05 04:59:00,75.2,70.4,30.04,ENE,68,3.8,0.0,85,0.00,,---,0.02,VWS V14.01,2013-01-05 08:59:00,
2013-01-05 05:03:00,75.2,70.4,30.04,SE,135,4.0,0.0,85,0.00,,---,0.02,VWS V14.01,2013-01-05 09:03:00,
2013-01-05 05:08:00,75.2,70.4,30.04,North,0,6.0,0.0,85,0.00,,---,0.02,VWS V14.01,2013-01-05 09:08:00,
2013-01-05 05:13:00,75.2,70.0,30.04,East,90,6.7,0.0,84,0.00,,---,0.02,VWS V14.01,2013-01-05 09:13:00,
2013-01-05 05:18:00,75.2,69.7,30.04,SE,135,5.8,0.0,83,0.00,,---,0.02,VWS V14.01,2013-01-05 09:18:00,
2013-01-05 05:23:00,75.4,69.5,30.04,WSW,248,3.6,0.0,82,0.00,,---,0.02,VWS V14.01,2013-01-05 09:23:00,
2013-01-05 05:28:00,75.4,69.9,30.04,SSE,158,4.9,0.0,83,0.00,,---,0.02,VWS V14.01,2013-01-05 09:28:00,
2013-01-05 05:33:00,75.6,70.4,30.04,East,90,5.4,0.0,84,0.00,,---,0.02,VWS V14.01,2013-01-05 09:33:00,
2013-01-05 05:38:00,75.6,70.4,30.04,NE,45,3.4,0.0,84,0.00,,---,0.02,VWS V14.01,2013-01-05 09:38:00,
2013-01-05 05:43:00,75.6,70.4,30.04,SE,135,4.3,0.0,84,0.00,,---,0.02,VWS V14.01,2013-01-05 09:43:00,
2013-01-05 05:48:00,75.8,70.6,30.04,NE,45,2.5,0.0,84,0.00,,---,0.02,VWS V14.01,2013-01-05 09:48:00,
2013-01-05 05:53:00,75.8,70.6,30.04,South,180,4.0,0.0,84,0.00,,---,0.02,VWS V14.01,2013-01-05 09:53:00,
2013-01-05 05:58:00,75.8,70.3,30.05,SSW,202,6.0,0.0,83,0.00,,---,0.02,VWS V14.01,2013-01-05 09:58:00,
2013-01-05 06:03:00,75.8,70.3,30.05,ENE,68,4.7,0.0,83,0.00,,---,0.02,VWS V14.01,2013-01-05 10:03:00,
2013-01-05 06:08:00,75.8,70.3,30.05,East,90,4.5,0.0,83,0.00,,---,0.02,VWS V14.01,2013-01-05 10:08:00,
2013-01-05 06:13:00,75.8,69.9,30.05,NNE,22,4.9,0.0,82,0.00,,---,0.02,VWS V14.01,2013-01-05 10:13:00,
2013-01-05 06:18:00,75.8,69.9,30.06,North,0,4.7,0.0,82,0.00,,---,0.02,VWS V14.01,2013-01-05 10:18:00,
2013-01-05 06:23:00,76.0,70.1,30.06,NNW,338,4.7,0.0,82,0.00,,---,0.02,VWS V14.01,2013-01-05 10:23:00,
2013-01-05 06:29:00,76.0,69.4,30.06,ENE,68,5.4,0.0,80,0.00,,---,0.02,VWS V14.01,2013-01-05 10:29:00,
2013-01-05 06:34:00,76.0,69.8,30.06,NE,45,4.7,0.0,81,0.00,,---,0.02,VWS V14.01,2013-01-05 10:34:00,
2013-01-05 06:39:00,76.1,70.2,30.06,East,90,4.0,0.0,82,0.01,,---,0.03,VWS V14.01,2013-01-05 10:39:00,
2013-01-05 06:44:00,75.6,70.1,30.07,ESE,112,3.8,0.0,83,0.01,,---,0.03,VWS V14.01,2013-01-05 10:44:00,
2013-01-05 06:49:00,75.2,69.7,30.07,SSE,158,5.4,0.0,83,0.01,,---,0.03,VWS V14.01,2013-01-05 10:49:00,
2013-01-05 06:54:00,75.2,70.0,30.07,SE,135,4.3,0.0,84,0.01,,---,0.03,VWS V14.01,2013-01-05 10:54:00,
2013-01-05 06:59:00,75.1,69.9,30.07,ENE,68,4.0,0.0,84,0.01,,---,0.03,VWS V14.01,2013-01-05 10:59:00,
2013-01-05 07:04:00,75.1,70.3,30.07,ENE,68,4.5,0.0,85,0.01,,---,0.03,VWS V14.01,2013-01-05 11:04:00,
2013-01-05 07:09:00,75.1,69.9,30.08,SE,135,5.8,0.0,84,0.01,,---,0.03,VWS V14.01,2013-01-05 11:09:00,
2013-01-05 07:14:00,75.2,70.0,30.08,ESE,112,6.5,0.0,84,0.01,,---,0.03,VWS V14.01,2013-01-05 11:14:00,
2013-01-05 07:19:00,75.4,70.2,30.08,SE,135,3.8,0.0,84,0.01,,---,0.03,VWS V14.01,2013-01-05 11:19:00,
2013-01-05 07:24:00,75.6,70.4,30.08,NE,45,6.5,0.0,84,0.01,,---,0.03,VWS V14.01,2013-01-05 11:24:00,
2013-01-05 07:29:00,76.1,70.9,30.08,North,0,3.4,0.0,84,0.01,,---,0.03,VWS V14.01,2013-01-05 11:29:00,
2013-01-05 07:34:00,76.7,71.5,30.09,ESE,112,4.7,0.0,84,0.01,,---,0.03,VWS V14.01,2013-01-05 11:34:00,
2013-01-05 07:39:00,77.0,70.4,30.09,SE,135,3.6,0.0,80,0.00,,---,0.03,VWS V14.01,2013-01-05 11:39:00,
2013-01-05 07:44:00,77.6,70.2,30.09,SE,135,6.3,0.0,78,0.00,,---,0.03,VWS V14.01,2013-01-05 11:44:00,
2013-01-05 07:49:00,77.6,70.2,30.09,SE,135,6.9,0.0,78,0.00,,---,0.03,VWS V14.01,2013-01-05 11:49:00,
2013-01-05 07:54:00,77.8,70.4,30.10,ESE,112,6.5,0.0,78,0.00,,---,0.03,VWS V14.01,2013-01-05 11:54:00,
2013-01-05 07:59:00,78.5,70.7,30.10,ENE,68,4.0,0.0,77,0.00,,---,0.03,VWS V14.01,2013-01-05 11:59:00,
2013-01-05 08:04:00,78.8,70.2,30.10,South,180,4.5,0.0,75,0.00,,---,0.03,VWS V14.01,2013-01-05 12:04:00,
2013-01-05 08:09:00,79.0,70.8,30.10,South,180,5.1,0.0,76,0.00,,---,0.03,VWS V14.01,2013-01-05 12:09:00,
2013-01-05 08:14:00,79.2,70.6,30.10,NE,45,4.0,0.0,75,0.00,,---,0.03,VWS V14.01,2013-01-05 12:14:00,
2013-01-05 08:19:00,79.7,71.1,30.10,NNE,22,3.4,0.0,75,0.00,,---,0.03,VWS V14.01,2013-01-05 12:19:00,
2013-01-05 08:25:00,79.7,70.3,30.11,East,90,4.5,0.0,73,0.00,,---,0.03,VWS V14.01,2013-01-05 12:25:00,
2013-01-05 08:30:00,79.4,70.4,30.11,SE,135,4.7,0.0,74,0.00,,---,0.03,VWS V14.01,2013-01-05 12:30:00,
2013-01-05 08:35:00,79.0,70.4,30.11,SE,135,4.7,0.0,75,0.00,,---,0.03,VWS V14.01,2013-01-05 12:35:00,
2013-01-05 08:40:00,79.4,70.8,30.11,NNE,22,6.3,0.0,75,0.00,,---,0.03,VWS V14.01,2013-01-05 12:40:00,
2013-01-05 08:45:00,79.4,70.4,30.12,ESE,112,4.7,0.0,74,0.00,,---,0.03,VWS V14.01,2013-01-05 12:45:00,
2013-01-05 08:50:00,79.6,69.8,30.12,NW,315,6.7,0.0,72,0.00,,---,0.03,VWS V14.01,2013-01-05 12:50:00,
2013-01-05 08:55:00,79.6,70.6,30.12,East,90,5.8,0.0,74,0.00,,---,0.03,VWS V14.01,2013-01-05 12:55:00,
2013-01-05 09:00:00,78.8,69.8,30.12,SE,135,5.8,0.0,74,0.00,,---,0.03,VWS V14.01,2013-01-05 13:00:00,
2013-01-05 09:05:00,78.5,69.9,30.12,SE,135,7.2,0.0,75,0.00,,---,0.03,VWS V14.01,2013-01-05 13:05:00,
2013-01-05 09:10:00,78.1,69.5,30.12,ENE,68,6.3,0.0,75,0.00,,---,0.03,VWS V14.01,2013-01-05 13:10:00,
2013-01-05 09:15:00,78.1,69.9,30.12,ESE,112,6.0,0.0,76,0.00,,---,0.03,VWS V14.01,2013-01-05 13:15:00,
2013-01-05 09:20:00,78.1,69.5,30.12,North,0,3.1,0.0,75,0.00,,---,0.03,VWS V14.01,2013-01-05 13:20:00,
2013-01-05 09:25:00,78.1,69.5,30.12,ESE,112,5.6,0.0,75,0.00,,---,0.03,VWS V14.01,2013-01-05 13:25:00,
2013-01-05 09:30:00,78.1,69.5,30.12,ENE,68,4.0,0.0,75,0.00,,---,0.03,VWS V14.01,2013-01-05 13:30:00,
2013-01-05 09:35:00,78.1,69.5,30.12,NNW,338,5.4,0.0,75,0.00,,---,0.03,VWS V14.01,2013-01-05 13:35:00,
2013-01-05 09:40:00,78.3,69.3,30.12,ESE,112,5.8,0.0,74,0.00,,---,0.03,VWS V14.01,2013-01-05 13:40:00,
2013-01-05 09:46:00,78.1,69.5,30.12,SE,135,6.3,0.0,75,0.00,,---,0.03,VWS V14.01,2013-01-05 13:46:00,
2013-01-05 09:51:00,78.1,69.5,30.12,South,180,4.7,0.0,75,0.00,,---,0.03,VWS V14.01,2013-01-05 13:51:00,
2013-01-05 09:56:00,78.1,69.5,30.12,NNE,22,3.4,0.0,75,0.00,,---,0.03,VWS V14.01,2013-01-05 13:56:00,
2013-01-05 10:01:00,78.1,69.9,30.12,East,90,4.5,0.0,76,0.00,,---,0.03,VWS V14.01,2013-01-05 14:01:00,
2013-01-05 10:06:00,78.3,70.1,30.12,SSW,202,4.9,0.0,76,0.00,,---,0.03,VWS V14.01,2013-01-05 14:06:00,
2013-01-05 10:11:00,78.5,70.3,30.12,East,90,4.5,0.0,76,0.00,,---,0.03,VWS V14.01,2013-01-05 14:11:00,
2013-01-05 10:16:00,78.5,69.9,30.12,ENE,68,4.7,0.0,75,0.00,,---,0.03,VWS V14.01,2013-01-05 14:16:00,
2013-01-05 10:21:00,78.7,70.1,30.12,NNE,22,4.5,0.0,75,0.00,,---,0.03,VWS V14.01,2013-01-05 14:21:00,
2013-01-05 10:26:00,78.8,70.6,30.12,NNE,22,6.3,0.0,76,0.00,,---,0.03,VWS V14.01,2013-01-05 14:26:00,
2013-01-05 10:31:00,79.4,70.8,30.12,East,90,5.4,0.0,75,0.00,,---,0.03,VWS V14.01,2013-01-05 14:31:00,
2013-01-05 10:36:00,79.6,71.0,30.12,ESE,112,5.4,0.0,75,0.00,,---,0.03,VWS V14.01,2013-01-05 14:36:00,
2013-01-05 10:41:00,79.9,70.5,30.12,West,270,6.3,0.0,73,0.00,,---,0.03,VWS V14.01,2013-01-05 14:41:00,
2013-01-05 10:46:00,80.1,70.3,30.11,South,180,4.7,0.0,72,0.00,,---,0.03,VWS V14.01,2013-01-05 14:46:00,
2013-01-05 10:51:00,80.1,70.3,30.11,NW,315,4.5,0.0,72,0.00,,---,0.03,VWS V14.01,2013-01-05 14:51:00,
2013-01-05 10:56:00,80.1,71.1,30.11,ENE,68,5.8,0.0,74,0.00,,---,0.03,VWS V14.01,2013-01-05 14:56:00,
2013-01-05 11:01:00,80.1,71.1,30.11,ESE,112,4.7,0.0,74,0.00,,---,0.03,VWS V14.01,2013-01-05 15:01:00,
2013-01-05 11:06:00,79.9,71.3,30.11,ENE,68,6.7,0.0,75,0.00,,---,0.03,VWS V14.01,2013-01-05 15:06:00,
2013-01-05 11:11:00,80.3,71.7,30.11,East,90,6.5,0.0,75,0.00,,---,0.03,VWS V14.01,2013-01-05 15:11:00,
2013-01-05 11:16:00,80.5,71.1,30.11,SW,225,6.9,0.0,73,0.00,,---,0.03,VWS V14.01,2013-01-05 15:16:00,
2013-01-05 11:21:00,80.1,71.1,30.10,SW,225,6.0,0.0,74,0.00,,---,0.03,VWS V14.01,2013-01-05 15:21:00,
2013-01-05 11:26:00,79.9,70.9,30.10,NNE,22,5.4,0.0,74,0.00,,---,0.03,VWS V14.01,2013-01-05 15:26:00,
2013-01-05 11:31:00,79.9,71.3,30.10,NNE,22,2.9,0.0,75,0.00,,---,0.03,VWS V14.01,2013-01-05 15:31:00,
2013-01-05 11:36:00,80.3,71.7,30.10,SSW,202,6.5,0.0,75,0.00,,---,0.03,VWS V14.01,2013-01-05 15:36:00,
2013-01-05 11:42:00,80.3,71.3,30.10,NNE,22,5.4,0.0,74,0.00,,---,0.03,VWS V14.01,2013-01-05 15:42:00,
2013-01-05 11:47:00,80.1,70.3,30.10,ENE,68,5.4,0.0,72,0.00,,---,0.03,VWS V14.01,2013-01-05 15:47:00,
2013-01-05 11:52:00,80.5,70.7,30.10,NE,45,7.6,0.0,72,0.00,,---,0.03,VWS V14.01,2013-01-05 15:52:00,
2013-01-05 11:57:00,80.6,70.8,30.10,ESE,112,6.5,0.0,72,0.00,,---,0.03,VWS V14.01,2013-01-05 15:57:00,
2013-01-05 12:02:00,80.5,71.1,30.09,WNW,292,4.7,0.0,73,0.00,,---,0.03,VWS V14.01,2013-01-05 16:02:00,
2013-01-05 12:07:00,80.3,70.9,30.09,NNE,22,6.3,0.0,73,0.00,,---,0.03,VWS V14.01,2013-01-05 16:07:00,
2013-01-05 12:12:00,80.3,71.3,30.09,WNW,292,4.7,0.0,74,0.00,,---,0.03,VWS V14.01,2013-01-05 16:12:00,
2013-01-05 12:17:00,80.6,71.2,30.09,SSE,158,4.7,0.0,73,0.00,,---,0.03,VWS V14.01,2013-01-05 16:17:00,
2013-01-05 12:22:00,80.6,71.2,30.09,South,180,6.5,0.0,73,0.00,,---,0.03,VWS V14.01,2013-01-05 16:22:00,
2013-01-05 12:27:00,80.3,70.9,30.08,North,0,3.8,0.0,73,0.00,,---,0.03,VWS V14.01,2013-01-05 16:27:00,
2013-01-05 12:32:00,80.1,70.3,30.08,East,90,4.7,0.0,72,0.00,,---,0.03,VWS V14.01,2013-01-05 16:32:00,
2013-01-05 12:37:00,80.3,70.9,30.08,North,0,3.1,0.0,73,0.00,,---,0.03,VWS V14.01,2013-01-05 16:37:00,
2013-01-05 12:42:00,80.5,69.8,30.08,NNW,338,6.5,0.0,70,0.00,,---,0.03,VWS V14.01,2013-01-05 16:42:00,
2013-01-05 12:47:00,80.6,69.9,30.08,ENE,68,5.1,0.0,70,0.00,,---,0.03,VWS V14.01,2013-01-05 16:47:00,
2013-01-05 12:52:00,81.0,70.3,30.08,ENE,68,7.2,0.0,70,0.00,,---,0.03,VWS V14.01,2013-01-05 16:52:00,
2013-01-05 12:57:00,81.0,70.7,30.07,SE,135,5.4,0.0,71,0.00,,---,0.03,VWS V14.01,2013-01-05 16:57:00,
2013-01-05 13:02:00,80.8,70.5,30.07,NE,45,3.4,0.0,71,0.00,,---,0.03,VWS V14.01,2013-01-05 17:02:00,
2013-01-05 13:08:00,81.0,71.1,30.07,SSE,158,2.9,0.0,72,0.00,,---,0.03,VWS V14.01,2013-01-05 17:08:00,
2013-01-05 13:13:00,80.8,70.5,30.07,SE,135,6.0,0.0,71,0.00,,---,0.03,VWS V14.01,2013-01-05 17:13:00,
2013-01-05 13:18:00,80.3,70.1,30.07,NE,45,4.0,0.0,71,0.00,,---,0.03,VWS V14.01,2013-01-05 17:18:00,
2013-01-05 13:23:00,80.3,70.9,30.06,SE,135,3.8,0.0,73,0.00,,---,0.03,VWS V14.01,2013-01-05 17:23:00,
2013-01-05 13:28:00,80.3,70.5,30.06,SSW,202,6.0,0.0,72,0.00,,---,0.03,VWS V14.01,2013-01-05 17:28:00,
2013-01-05 13:33:00,80.1,69.9,30.06,SW,225,6.5,0.0,71,0.00,,---,0.03,VWS V14.01,2013-01-05 17:33:00,
2013-01-05 13:38:00,80.3,70.5,30.06,SE,135,5.1,0.0,72,0.00,,---,0.03,VWS V14.01,2013-01-05 17:38:00,
2013-01-05 13:43:00,80.3,70.5,30.06,ESE,112,2.7,0.0,72,0.00,,---,0.03,VWS V14.01,2013-01-05 17:43:00,
2013-01-05 13:48:00,80.3,70.1,30.06,SSE,158,5.4,0.0,71,0.00,,---,0.03,VWS V14.01,2013-01-05 17:48:00,
2013-01-05 13:53:00,80.1,69.4,30.06,SE,135,6.3,0.0,70,0.00,,---,0.03,VWS V14.01,2013-01-05 17:53:00,
2013-01-05 13:58:00,79.9,69.7,30.06,NW,315,6.0,0.0,71,0.00,,---,0.03,VWS V14.01,2013-01-05 17:58:00,
2013-01-05 14:03:00,79.9,69.7,30.06,SSE,158,5.6,0.0,71,0.00,,---,0.03,VWS V14.01,2013-01-05 18:03:00,
2013-01-05 14:08:00,79.9,69.7,30.05,South,180,6.7,0.0,71,0.00,,---,0.03,VWS V14.01,2013-01-05 18:08:00,
2013-01-05 14:13:00,79.7,69.5,30.05,ESE,112,5.4,0.0,71,0.00,,---,0.03,VWS V14.01,2013-01-05 18:13:00,
2013-01-05 14:18:00,79.9,70.1,30.05,ENE,68,3.4,0.0,72,0.00,,---,0.03,VWS V14.01,2013-01-05 18:18:00,
2013-01-05 14:23:00,79.7,69.5,30.05,SW,225,4.5,0.0,71,0.00,,---,0.03,VWS V14.01,2013-01-05 18:23:00,
2013-01-05 14:29:00,79.6,70.2,30.05,ENE,68,3.4,0.0,73,0.00,,---,0.03,VWS V14.01,2013-01-05 18:29:00,
2013-01-05 14:34:00,79.4,70.4,30.05,NNW,338,4.0,0.0,74,0.00,,---,0.03,VWS V14.01,2013-01-05 18:34:00,
2013-01-05 14:39:00,79.4,70.4,30.05,NE,45,5.4,0.0,74,0.00,,---,0.03,VWS V14.01,2013-01-05 18:39:00,
2013-01-05 14:44:00,79.2,70.2,30.05,SE,135,5.4,0.0,74,0.00,,---,0.03,VWS V14.01,2013-01-05 18:44:00,
2013-01-05 14:49:00,79.0,70.0,30.05,West,270,3.1,0.0,74,0.00,,---,0.03,VWS V14.01,2013-01-05 18:49:00,
2013-01-05 14:54:00,79.0,70.0,30.05,SSE,158,5.1,0.0,74,0.00,,---,0.03,VWS V14.01,2013-01-05 18:54:00,
2013-01-05 14:59:00,79.0,70.4,30.05,ESE,112,5.4,0.0,75,0.00,,---,0.03,VWS V14.01,2013-01-05 18:59:00,
2013-01-05 15:04:00,79.0,70.4,30.04,ESE,112,3.4,0.0,75,0.00,,---,0.03,VWS V14.01,2013-01-05 19:04:00,
2013-01-05 15:09:00,79.0,70.4,30.04,East,90,4.7,0.0,75,0.00,,---,0.03,VWS V14.01,2013-01-05 19:09:00,
2013-01-05 15:14:00,78.8,69.8,30.04,ESE,112,5.4,0.0,74,0.00,,---,0.03,VWS V14.01,2013-01-05 19:14:00,
2013-01-05 15:19:00,79.0,70.4,30.04,East,90,2.9,0.0,75,0.00,,---,0.03,VWS V14.01,2013-01-05 19:19:00,
2013-01-05 15:24:00,78.8,69.8,30.05,NE,45,4.0,0.0,74,0.00,,---,0.03,VWS V14.01,2013-01-05 19:24:00,
2013-01-05 15:30:00,78.8,70.2,30.04,South,180,4.3,0.0,75,0.00,,---,0.03,VWS V14.01,2013-01-05 19:30:00,
2013-01-05 15:35:00,78.7,70.1,30.05,SW,225,6.7,0.0,75,0.00,,---,0.03,VWS V14.01,2013-01-05 19:35:00,
2013-01-05 15:39:00,78.3,69.7,30.05,SE,135,6.9,0.0,75,0.00,,---,0.03,VWS V14.01,2013-01-05 19:39:00,
2013-01-05 15:45:00,78.1,69.9,30.04,NNE,22,5.1,0.0,76,0.00,,---,0.03,VWS V14.01,2013-01-05 19:45:00,
2013-01-05 15:50:00,78.1,70.3,30.04,ESE,112,6.7,0.0,77,0.00,,---,0.03,VWS V14.01,2013-01-05 19:50:00,
2013-01-05 15:55:00,78.1,70.3,30.04,ENE,68,6.3,0.0,77,0.00,,---,0.03,VWS V14.01,2013-01-05 19:55:00,
2013-01-05 16:00:00,78.1,69.9,30.04,WNW,292,4.7,0.0,76,0.00,,---,0.03,VWS V14.01,2013-01-05 20:00:00,
2013-01-05 16:05:00,78.1,70.3,30.04,NNE,22,4.7,0.0,77,0.00,,---,0.03,VWS V14.01,2013-01-05 20:05:00,
2013-01-05 16:10:00,77.9,69.3,30.04,SSW,202,4.7,0.0,75,0.00,,---,0.03,VWS V14.01,2013-01-05 20:10:00,
2013-01-05 16:15:00,77.9,69.7,30.04,SSE,158,4.9,0.0,76,0.00,,---,0.03,VWS V14.01,2013-01-05 20:15:00,
2013-01-05 16:20:00,77.9,69.7,30.04,ESE,112,5.4,0.0,76,0.00,,---,0.03,VWS V14.01,2013-01-05 20:20:00,
2013-01-05 16:25:00,77.9,70.1,30.04,SE,135,6.9,0.0,77,0.00,,---,0.03,VWS V14.01,2013-01-05 20:25:00,
2013-01-05 16:30:00,77.8,70.0,30.04,NE,45,4.7,0.0,77,0.00,,---,0.03,VWS V14.01,2013-01-05 20:30:00,
2013-01-05 16:35:00,77.8,70.4,30.04,WSW,248,5.8,0.0,78,0.00,,---,0.03,VWS V14.01,2013-01-05 20:35:00,
2013-01-05 16:40:00,77.8,70.4,30.04,ENE,68,6.3,0.0,78,0.00,,---,0.03,VWS V14.01,2013-01-05 20:40:00,
2013-01-05 16:45:00,77.6,70.2,30.04,North,0,5.8,0.0,78,0.00,,---,0.03,VWS V14.01,2013-01-05 20:45:00,
2013-01-05 16:51:00,77.6,69.8,30.04,West,270,4.7,0.0,77,0.00,,---,0.03,VWS V14.01,2013-01-05 20:51:00,
2013-01-05 16:56:00,77.6,69.8,30.04,NNE,22,4.0,0.0,77,0.00,,---,0.03,VWS V14.01,2013-01-05 20:56:00,
2013-01-05 17:01:00,77.6,69.8,30.04,NNE,22,2.7,0.0,77,0.00,,---,0.03,VWS V14.01,2013-01-05 21:01:00,
2013-01-05 17:06:00,77.6,69.8,30.04,NNW,338,5.8,0.0,77,0.00,,---,0.03,VWS V14.01,2013-01-05 21:06:00,
2013-01-05 17:11:00,77.4,69.6,30.04,North,0,4.9,0.0,77,0.00,,---,0.03,VWS V14.01,2013-01-05 21:11:00,
2013-01-05 17:16:00,77.4,70.0,30.04,ESE,112,7.6,0.0,78,0.00,,---,0.03,VWS V14.01,2013-01-05 21:16:00,
2013-01-05 17:21:00,77.4,70.0,30.04,NW,315,6.0,0.0,78,0.00,,---,0.03,VWS V14.01,2013-01-05 21:21:00,
2013-01-05 17:26:00,77.2,69.8,30.04,SE,135,8.5,0.0,78,0.00,,---,0.03,VWS V14.01,2013-01-05 21:26:00,
2013-01-05 17:31:00,77.2,69.4,30.04,WSW,248,5.4,0.0,77,0.00,,---,0.03,VWS V14.01,2013-01-05 21:31:00,
2013-01-05 17:36:00,77.2,69.8,30.04,WSW,248,6.3,0.0,78,0.00,,---,0.03,VWS V14.01,2013-01-05 21:36:00,
2013-01-05 17:41:00,77.0,69.6,30.04,East,90,7.6,0.0,78,0.00,,---,0.03,VWS V14.01,2013-01-05 21:41:00,
2013-01-05 17:46:00,77.0,69.6,30.04,North,0,7.4,0.0,78,0.00,,---,0.03,VWS V14.01,2013-01-05 21:46:00,
2013-01-05 17:51:00,77.0,69.6,30.04,NE,45,4.3,0.0,78,0.00,,---,0.03,VWS V14.01,2013-01-05 21:51:00,
2013-01-05 17:56:00,77.0,69.6,30.04,SE,135,4.0,0.0,78,0.00,,---,0.03,VWS V14.01,2013-01-05 21:56:00,
2013-01-05 18:01:00,76.9,69.2,30.04,SE,135,6.0,0.0,77,0.00,,---,0.03,VWS V14.01,2013-01-05 22:01:00,
2013-01-05 18:06:00,76.9,69.5,30.04,South,180,4.7,0.0,78,0.00,,---,0.03,VWS V14.01,2013-01-05 22:06:00,
2013-01-05 18:11:00,77.0,70.0,30.04,NW,315,5.8,0.0,79,0.00,,---,0.03,VWS V14.01,2013-01-05 22:11:00,
2013-01-05 18:17:00,76.9,69.5,30.04,ESE,112,4.7,0.0,78,0.00,,---,0.03,VWS V14.01,2013-01-05 22:17:00,
2013-01-05 18:22:00,76.9,69.9,30.04,SSE,158,4.3,0.0,79,0.00,,---,0.03,VWS V14.01,2013-01-05 22:22:00,
2013-01-05 18:27:00,76.9,69.5,30.05,NE,45,4.3,0.0,78,0.00,,---,0.03,VWS V14.01,2013-01-05 22:27:00,
2013-01-05 18:32:00,77.0,70.0,30.05,SSE,158,6.0,0.0,79,0.00,,---,0.03,VWS V14.01,2013-01-05 22:32:00,
2013-01-05 18:37:00,76.9,69.5,30.05,NNE,22,5.8,0.0,78,0.00,,---,0.03,VWS V14.01,2013-01-05 22:37:00,
2013-01-05 18:42:00,76.9,69.9,30.05,ENE,68,5.4,0.0,79,0.00,,---,0.03,VWS V14.01,2013-01-05 22:42:00,
2013-01-05 18:47:00,76.9,69.9,30.05,SE,135,5.6,0.0,79,0.00,,---,0.03,VWS V14.01,2013-01-05 22:47:00,
2013-01-05 18:52:00,76.7,69.3,30.05,SSW,202,4.3,0.0,78,0.00,,---,0.03,VWS V14.01,2013-01-05 22:52:00,
2013-01-05 18:57:00,76.7,69.3,30.05,NE,45,7.8,0.0,78,0.00,,---,0.03,VWS V14.01,2013-01-05 22:57:00,
2013-01-05 19:02:00,76.7,69.7,30.06,SE,135,11.4,0.0,79,0.00,,---,0.03,VWS V14.01,2013-01-05 23:02:00,
2013-01-05 19:07:00,76.7,69.7,30.06,West,270,8.5,0.0,79,0.00,,---,0.03,VWS V14.01,2013-01-05 23:07:00,
2013-01-05 19:12:00,76.7,69.7,30.06,SW,225,5.4,0.0,79,0.00,,---,0.03,VWS V14.01,2013-01-05 23:12:00,
2013-01-05 19:17:00,76.9,69.9,30.06,NE,45,5.6,0.0,79,0.00,,---,0.03,VWS V14.01,2013-01-05 23:17:00,
2013-01-05 19:22:00,76.7,69.3,30.06,ESE,112,7.6,0.0,78,0.00,,---,0.03,VWS V14.01,2013-01-05 23:22:00,
2013-01-05 19:27:00,76.7,69.3,30.06,NE,45,4.7,0.0,78,0.00,,---,0.03,VWS V14.01,2013-01-05 23:27:00,
2013-01-05 19:32:00,76.7,68.6,30.07,SE,135,6.9,0.0,76,0.00,,---,0.03,VWS V14.01,2013-01-05 23:32:00,
2013-01-05 19:38:00,76.9,69.5,30.07,SE,135,6.9,0.0,78,0.00,,---,0.03,VWS V14.01,2013-01-05 23:38:00,
2013-01-05 19:43:00,76.9,69.5,30.07,SE,135,5.1,0.0,78,0.00,,---,0.03,VWS V14.01,2013-01-05 23:43:00,
2013-01-05 19:48:00,76.7,68.6,30.07,NNE,22,6.3,0.0,76,0.00,,---,0.03,VWS V14.01,2013-01-05 23:48:00,
2013-01-05 19:53:00,76.7,69.3,30.07,WSW,248,5.1,0.0,78,0.00,,---,0.03,VWS V14.01,2013-01-05 23:53:00,
2013-01-05 19:58:00,76.7,69.3,30.08,SW,225,6.3,0.0,78,0.00,,---,0.03,VWS V14.01,2013-01-05 23:58:00,
2013-01-05 20:03:00,76.7,68.9,30.08,NNE,22,4.9,0.0,77,0.00,,---,0.03,VWS V14.01,2013-01-06 00:03:00,
2013-01-05 20:08:00,76.7,69.3,30.08,NNE,22,4.9,0.0,78,0.00,,---,0.03,VWS V14.01,2013-01-06 00:08:00,
2013-01-05 20:13:00,76.7,68.9,30.08,ESE,112,6.9,0.0,77,0.00,,---,0.03,VWS V14.01,2013-01-06 00:13:00,
2013-01-05 20:18:00,76.9,69.5,30.08,ENE,68,7.2,0.0,78,0.00,,---,0.03,VWS V14.01,2013-01-06 00:18:00,
2013-01-05 20:23:00,76.7,69.3,30.09,SE,135,6.9,0.0,78,0.00,,---,0.03,VWS V14.01,2013-01-06 00:23:00,
2013-01-05 20:28:00,76.7,68.9,30.09,NE,45,3.8,0.0,77,0.00,,---,0.03,VWS V14.01,2013-01-06 00:28:00,
2013-01-05 20:33:00,76.9,69.5,30.09,NW,315,4.3,0.0,78,0.00,,---,0.03,VWS V14.01,2013-01-06 00:33:00,
2013-01-05 20:38:00,76.9,69.9,30.09,East,90,3.6,0.0,79,0.00,,---,0.03,VWS V14.01,2013-01-06 00:38:00,
2013-01-05 20:43:00,76.7,69.7,30.09,ESE,112,5.8,0.0,79,0.00,,---,0.03,VWS V14.01,2013-01-06 00:43:00,
2013-01-05 20:48:00,76.9,70.3,30.09,SSE,158,6.7,0.0,80,0.00,,---,0.03,VWS V14.01,2013-01-06 00:48:00,
2013-01-05 20:54:00,76.9,70.3,30.09,NNE,22,4.0,0.0,80,0.00,,---,0.03,VWS V14.01,2013-01-06 00:54:00,
2013-01-05 20:59:00,76.9,69.9,30.09,NE,45,6.7,0.0,79,0.00,,---,0.03,VWS V14.01,2013-01-06 00:59:00,
2013-01-05 21:04:00,76.7,69.3,30.09,South,180,6.0,0.0,78,0.00,,---,0.03,VWS V14.01,2013-01-06 01:04:00,
2013-01-05 21:09:00,76.9,69.9,30.09,SSE,158,4.7,0.0,79,0.00,,---,0.03,VWS V14.01,2013-01-06 01:09:00,
2013-01-05 21:14:00,76.9,70.3,30.09,WSW,248,10.3,0.0,80,0.00,,---,0.03,VWS V14.01,2013-01-06 01:14:00,
2013-01-05 21:19:00,76.9,70.3,30.09,East,90,6.9,0.0,80,0.00,,---,0.03,VWS V14.01,2013-01-06 01:19:00,
2013-01-05 21:24:00,76.9,69.9,30.09,SSE,158,6.5,0.0,79,0.00,,---,0.03,VWS V14.01,2013-01-06 01:24:00,
2013-01-05 21:29:00,76.9,70.3,30.09,SE,135,8.5,0.0,80,0.00,,---,0.03,VWS V14.01,2013-01-06 01:29:00,
2013-01-05 21:34:00,76.9,70.3,30.09,SSE,158,5.8,0.0,80,0.00,,---,0.03,VWS V14.01,2013-01-06 01:34:00,
2013-01-05 21:39:00,76.7,70.4,30.09,SE,135,4.0,0.0,81,0.00,,---,0.03,VWS V14.01,2013-01-06 01:39:00,
2013-01-05 21:45:00,76.7,70.1,30.09,SE,135,6.0,0.0,80,0.00,,---,0.03,VWS V14.01,2013-01-06 01:45:00,
2013-01-05 21:50:00,76.7,70.1,30.08,East,90,6.3,0.0,80,0.00,,---,0.03,VWS V14.01,2013-01-06 01:50:00,
2013-01-05 21:55:00,76.7,70.1,30.08,WSW,248,3.4,0.0,80,0.00,,---,0.03,VWS V14.01,2013-01-06 01:55:00,
2013-01-05 22:00:00,76.7,70.4,30.08,WSW,248,7.4,0.0,81,0.00,,---,0.03,VWS V14.01,2013-01-06 02:00:00,
2013-01-05 22:05:00,76.3,70.8,30.09,ESE,112,4.7,0.0,83,0.00,,---,0.03,VWS V14.01,2013-01-06 02:05:00,
2013-01-05 22:10:00,76.0,70.8,30.09,East,90,2.9,0.0,84,0.00,,---,0.03,VWS V14.01,2013-01-06 02:10:00,
2013-01-05 22:15:00,75.8,71.0,30.08,SE,135,7.6,0.0,85,0.00,,---,0.03,VWS V14.01,2013-01-06 02:15:00,
2013-01-05 22:20:00,75.8,70.6,30.08,SSE,158,3.6,0.0,84,0.00,,---,0.03,VWS V14.01,2013-01-06 02:20:00,
2013-01-05 22:25:00,76.0,70.5,30.08,ESE,112,8.5,0.0,83,0.00,,---,0.03,VWS V14.01,2013-01-06 02:25:00,
2013-01-05 22:30:00,76.0,69.8,30.08,ESE,112,7.6,0.0,81,0.00,,---,0.03,VWS V14.01,2013-01-06 02:30:00,
2013-01-05 22:35:00,76.0,70.1,30.08,South,180,5.6,0.0,82,0.00,,---,0.03,VWS V14.01,2013-01-06 02:35:00,
2013-01-05 22:40:00,76.1,70.2,30.08,ESE,112,5.1,0.0,82,0.00,,---,0.03,VWS V14.01,2013-01-06 02:40:00,
2013-01-05 22:45:00,76.1,70.2,30.08,East,90,5.4,0.0,82,0.00,,---,0.03,VWS V14.01,2013-01-06 02:45:00,
2013-01-05 22:50:00,76.1,69.8,30.08,NNE,22,6.0,0.0,81,0.00,,---,0.03,VWS V14.01,2013-01-06 02:50:00,
2013-01-05 22:56:00,76.3,70.1,30.07,ENE,68,7.6,0.0,81,0.00,,---,0.03,VWS V14.01,2013-01-06 02:56:00,
2013-01-05 23:01:00,76.3,70.1,30.07,NE,45,2.9,0.0,81,0.00,,---,0.03,VWS V14.01,2013-01-06 03:01:00,
2013-01-05 23:06:00,76.5,70.6,30.07,West,270,5.4,0.0,82,0.00,,---,0.03,VWS V14.01,2013-01-06 03:06:00,
2013-01-05 23:11:00,76.3,70.1,30.07,South,180,7.6,0.0,81,0.00,,---,0.03,VWS V14.01,2013-01-06 03:11:00,
2013-01-05 23:16:00,76.5,70.2,30.07,SE,135,6.9,0.0,81,0.00,,---,0.03,VWS V14.01,2013-01-06 03:16:00,
2013-01-05 23:21:00,76.5,70.2,30.07,ESE,112,7.4,0.0,81,0.00,,---,0.03,VWS V14.01,2013-01-06 03:21:00,
2013-01-05 23:26:00,76.5,70.2,30.07,ENE,68,5.6,0.0,81,0.00,,---,0.03,VWS V14.01,2013-01-06 03:26:00,
2013-01-05 23:31:00,76.5,70.2,30.06,ENE,68,6.7,0.0,81,0.00,,---,0.03,VWS V14.01,2013-01-06 03:31:00,
2013-01-05 23:36:00,76.5,70.2,30.06,East,90,7.4,0.0,81,0.00,,---,0.03,VWS V14.01,2013-01-06 03:36:00,
2013-01-05 23:41:00,76.7,70.4,30.06,NW,315,5.4,0.0,81,0.00,,---,0.03,VWS V14.01,2013-01-06 03:41:00,
2013-01-05 23:46:00,76.5,70.2,30.06,ESE,112,4.7,0.0,81,0.00,,---,0.03,VWS V14.01,2013-01-06 03:46:00,
2013-01-05 23:51:00,76.5,70.2,30.06,NE,45,6.3,0.0,81,0.00,,---,0.03,VWS V14.01,2013-01-06 03:51:00,
2013-01-05 23:56:00,76.3,70.1,30.06,NE,45,5.4,0.0,81,0.00,,---,0.03,VWS V14.01,2013-01-06 03:56:00,